QPF
0.02 0.02 0.03 0.03 0.04 0.05 0.04 0.02 0.01 0.01 0.01 0.00 0.00 0.00 0.00 0.00 0.00 0.00 0.00 0.00 0.00 0.00 0.00 0.00 0.00 0.00 0.00 0.00 0.00 0.00 0.00 0.00 0.00 0.00 0.01 0.01 0.01 0.01
0.01 0.01 0.01 0.01 0.03 0.04 0.04 0.03 0.01 0.01 0.01 0.00 0.00 0.00 0.00 0.00 0.00 0.00 0.00 0.00 0.00 0.00 0.00 0.00 0.00 0.00 0.00 0.00 0.00 0.00 0.00 0.00 0.01 0.01 0.01 0.01 0.01 0.01
0.02 0.01 0.01 0.01 0.02 0.03 0.04 0.04 0.02 0.01 0.01 0.00 0.00 0.00 0.00 0.00 0.00 0.00 0.00 0.00 0.00 0.00 0.00 0.00 0.00 0.00 0.00 0.00 0.00 0.00 0.00 0.01 0.01 0.01 0.01 0.01 0.01 0.01
0.01 0.01 0.01 0.01 0.01 0.02 0.03 0.04 0.03 0.02 0.01 0.00 0.00 0.00 0.00 0.00 0.00 0.00 0.00 0.00 0.00 0.00 0.00 0.00 0.00 0.00 0.00 0.00 0.00 0.00 0.01 0.01 0.01 0.01 0.01 0.01 0.01 0.01
0.01 0.01 0.01 0.01 0.01 0.01 0.02 0.03 0.03 0.03 0.02 0.01 0.01 0.00 0.00 0.00 0.00 0.00 0.00 0.00 0.00 0.00 0.00 0.00 0.00 0.00 0.00 0.00 0.00 0.01 0.00 0.00 0.01 0.01 0.01 0.01 0.01 0.01
0.01 0.01 0.01 0.01 0.01 0.01 0.01 0.02 0.03 0.03 0.03 0.03 0.02 0.01 0.00 0.00 0.00 0.00 0.00 0.00 0.00 0.00 0.00 0.00 0.00 0.00 0.00 0.00 0.00 0.00 0.00 0.00 0.00 0.01 0.01 0.01 0.01 0.01
0.01 0.01 0.01 0.01 0.01 0.01 0.01 0.01 0.02 0.03 0.03 0.04 0.04 0.02 0.01 0.00 0.00 0.00 0.00 0.00 0.00 0.00 0.00 0.00 0.00 0.00 0.00 0.00 0.00 0.00 0.00 0.00 0.00 0.01 0.01 0.01 0.01 0.01
0.01 0.01 0.01 0.01 0.01 0.00 0.01 0.01 0.01 0.01 0.02 0.03 0.03 0.03 0.02 0.01 0.00 0.00 0.00 0.01 0.00 0.00 0.00 0.00 0.00 0.00 0.00 0.00 0.00 0.00 0.00 0.00 0.00 0.01 0.01 0.01 0.01 0.01
0.01 0.01 0.00 0.00 0.00 0.00 0.00 0.00 0.00 0.00 0.01 0.02 0.02 0.03 0.03 0.02 0.01 0.01 0.01 0.01 0.01 0.00 0.00 0.00 0.00 0.00 0.00 0.00 0.00 0.00 0.00 0.00 0.00 0.01 0.01 0.01 0.01 0.01
0.00 0.00 0.00 0.00 0.00 0.00 0.00 0.00 0.00 0.00 0.00 0.00 0.01 0.02 0.02 0.03 0.02 0.02 0.02 0.02 0.01 0.01 0.01 0.01 0.00 0.00 0.00 0.00 0.00 0.00 0.00 0.00 0.00 0.01 0.01 0.01 0.01 0.01
0.00 0.00 0.00 0.00 0.00 0.00 0.00 0.00 0.00 0.00 0.00 0.00 0.01 0.01 0.01 0.02 0.02 0.02 0.03 0.03 0.02 0.01 0.01 0.01 0.01 0.01 0.00 0.00 0.00 0.00 0.00 0.00 0.00 0.01 0.01 0.01 0.01 0.01
0.00 0.00 0.00 0.00 0.00 0.00 0.00 0.01 0.01 0.00 0.00 0.00 0.01 0.01 0.02 0.02 0.02 0.02 0.02 0.03 0.03 0.02 0.01 0.01 0.01 0.01 0.01 0.00 0.00 0.00 0.00 0.00 0.00 0.00 0.01 0.01 0.01 0.01
0.00 0.00 0.00 0.00 0.00 0.00 0.01 0.01 0.01 0.01 0.00 0.01 0.01 0.01 0.02 0.03 0.03 0.02 0.02 0.02 0.03 0.02 0.01 0.02 0.02 0.02 0.02 0.01 0.00 0.00 0.00 0.00 0.00 0.00 0.00 0.01 0.01 0.01
0.00 0.00 0.00 0.00 0.00 0.00 0.01 0.00 0.01 0.01 0.01 0.01 0.01 0.01 0.01 0.01 0.02 0.02 0.02 0.02 0.02 0.02 0.01 0.02 0.03 0.03 0.03 0.02 0.01 0.00 0.00 0.00 0.00 0.00 0.00 0.00 0.01 0.01
0.00 0.00 0.00 0.00 0.00 0.00 0.00 0.00 0.01 0.01 0.01 0.01 0.01 0.01 0.01 0.01 0.01 0.01 0.01 0.01 0.01 0.01 0.01 0.01 0.02 0.03 0.04 0.04 0.02 0.01 0.01 0.00 0.00 0.00 0.00 0.00 0.00 0.00
0.00 0.00 0.00 0.00 0.00 0.00 0.00 0.00 0.00 0.00 0.01 0.01 0.01 0.00 0.00 0.01 0.01 0.01 0.01 0.01 0.01 0.01 0.01 0.01 0.01 0.02 0.03 0.02 0.02 0.01 0.01 0.01 0.00 0.00 0.00 0.00 0.00 0.00
0.01 0.01 0.01 0.01 0.01 0.00 0.00 0.00 0.00 0.00 0.01 0.01 0.01 0.01 0.01 0.01 0.01 0.01 0.01 0.01 0.01 0.01 0.01 0.01 0.01 0.01 0.01 0.02 0.02 0.01 0.01 0.00 0.00 0.00 0.01 0.01 0.00 0.00
0.01 0.01 0.01 0.01 0.00 0.00 0.00 0.00 0.00 0.00 0.00 0.01 0.01 0.01 0.01 0.01 0.01 0.01 0.01 0.01 0.01 0.01 0.01 0.01 0.01 0.02 0.01 0.01 0.01 0.01 0.01 0.00 0.00 0.01 0.01 0.01 0.01 0.00
0.01 0.01 0.00 0.00 0.00 0.00 0.00 0.00 0.00 0.00 0.00 0.01 0.01 0.01 0.01 0.01 0.01 0.01 0.01 0.01 0.01 0.01 0.01 0.01 0.01 0.02 0.02 0.01 0.00 0.00 0.01 0.01 0.01 0.01 0.01 0.01 0.01 0.00
0.01 0.00 0.00 0.00 0.00 0.00 0.00 0.00 0.01 0.01 0.00 0.01 0.01 0.01 0.01 0.02 0.02 0.02 0.02 0.02 0.02 0.01 0.01 0.01 0.01 0.02 0.02 0.02 0.01 0.00 0.00 0.01 0.01 0.01 0.01 0.01 0.00 0.00
0.01 0.01 0.00 0.00 0.01 0.01 0.01 0.01 0.01 0.01 0.01 0.01 0.01 0.01 0.01 0.02 0.02 0.02 0.02 0.02 0.02 0.02 0.01 0.01 0.01 0.01 0.02 0.03 0.02 0.01 0.00 0.00 0.00 0.01 0.01 0.01 0.01 0.01
0.01 0.01 0.01 0.01 0.01 0.01 0.02 0.02 0.02 0.02 0.01 0.01 0.01 0.02 0.02 0.02 0.02 0.02 0.02 0.02 0.02 0.01 0.01 0.01 0.01 0.01 0.02 0.02 0.01 0.00 0.00 0.00 0.00 0.00 0.01 0.01 0.02 0.02
0.02 0.01 0.01 0.01 0.02 0.02 0.02 0.02 0.02 0.02 0.02 0.02 0.02 0.02 0.02 0.02 0.02 0.02 0.02 0.02 0.02 0.02 0.01 0.01 0.01 0.01 0.01 0.01 0.01 0.01 0.00 0.00 0.00 0.00 0.00 0.01 0.01 0.01
MSLP
1022.08 1022.29 1022.44 1022.53 1022.54 1022.49 1022.38 1022.23 1022.06 1021.88 1021.74 1021.62 1021.55 1021.52 1021.54 1021.57 1021.62 1021.65 1021.64 1021.59 1021.46 1021.27 1021.03 1020.73 1020.40 1020.05 1019.71 1019.39 1019.10 1018.83 1018.58 1018.34 1018.11 1017.87 1017.62 1017.37 1017.12 1016.88
1022.03 1022.27 1022.46 1022.58 1022.64 1022.63 1022.55 1022.42 1022.26 1022.08 1021.90 1021.74 1021.61 1021.53 1021.48 1021.46 1021.45 1021.43 1021.39 1021.31 1021.17 1020.97 1020.71 1020.40 1020.06 1019.71 1019.36 1019.03 1018.73 1018.46 1018.21 1017.97 1017.73 1017.47 1017.21 1016.92 1016.64 1016.35
1021.88 1022.15 1022.36 1022.53 1022.63 1022.66 1022.63 1022.54 1022.39 1022.22 1022.03 1021.84 1021.67 1021.53 1021.42 1021.33 1021.26 1021.19 1021.10 1020.97 1020.79 1020.56 1020.27 1019.94 1019.58 1019.21 1018.85 1018.51 1018.21 1017.95 1017.71 1017.49 1017.26 1017.02 1016.75 1016.46 1016.15 1015.83
1021.71 1021.97 1022.20 1022.39 1022.52 1022.60 1022.60 1022.55 1022.44 1022.28 1022.10 1021.90 1021.70 1021.51 1021.34 1021.19 1021.06 1020.92 1020.77 1020.58 1020.35 1020.08 1019.75 1019.38 1018.99 1018.59 1018.22 1017.87 1017.58 1017.32 1017.11 1016.91 1016.71 1016.50 1016.25 1015.97 1015.65 1015.31
1021.54 1021.78 1022.00 1022.19 1022.34 1022.44 1022.48 1022.46 1022.38 1022.24 1022.07 1021.86 1021.64 1021.42 1021.20 1021.00 1020.81 1020.62 1020.41 1020.17 1019.89 1019.57 1019.19 1018.78 1018.35 1017.93 1017.53 1017.17 1016.86 1016.61 1016.41 1016.24 1016.07 1015.89 1015.67 1015.41 1015.09 1014.75
1021.39 1021.60 1021.79 1021.95 1022.10 1022.19 1022.25 1022.25 1022.19 1022.07 1021.90 1021.70 1021.47 1021.22 1020.98 1020.74 1020.51 1020.27 1020.02 1019.75 1019.43 1019.07 1018.65 1018.21 1017.74 1017.27 1016.83 1016.45 1016.12 1015.86 1015.66 1015.50 1015.35 1015.19 1014.99 1014.74 1014.44 1014.09
1021.27 1021.42 1021.56 1021.69 1021.80 1021.88 1021.92 1021.92 1021.87 1021.76 1021.60 1021.39 1021.16 1020.90 1020.64 1020.39 1020.14 1019.88 1019.61 1019.32 1018.99 1018.60 1018.16 1017.69 1017.18 1016.68 1016.19 1015.76 1015.39 1015.10 1014.87 1014.68 1014.53 1014.37 1014.18 1013.94 1013.64 1013.28
1021.15 1021.24 1021.32 1021.39 1021.46 1021.50 1021.52 1021.50 1021.43 1021.32 1021.15 1020.95 1020.71 1020.46 1020.20 1019.94 1019.69 1019.44 1019.18 1018.90 1018.57 1018.18 1017.74 1017.25 1016.71 1016.17 1015.63 1015.14 1014.71 1014.35 1014.06 1013.82 1013.63 1013.44 1013.23 1012.98 1012.67 1012.31
1020.98 1021.01 1021.03 1021.05 1021.06 1021.06 1021.04 1020.99 1020.90 1020.77 1020.60 1020.39 1020.16 1019.91 1019.66 1019.42 1019.19 1018.96 1018.73 1018.47 1018.17 1017.81 1017.38 1016.88 1016.33 1015.75 1015.16 1014.60 1014.08 1013.63 1013.25 1012.94 1012.67 1012.42 1012.17 1011.89 1011.57 1011.21
1020.73 1020.72 1020.69 1020.65 1020.61 1020.57 1020.51 1020.43 1020.31 1020.16 1019.98 1019.77 1019.53 1019.29 1019.06 1018.84 1018.64 1018.45 1018.26 1018.05 1017.79 1017.47 1017.07 1016.58 1016.02 1015.41 1014.77 1014.13 1013.52 1012.97 1012.48 1012.07 1011.70 1011.38 1011.07 1010.75 1010.40 1010.04
1020.40 1020.35 1020.28 1020.20 1020.13 1020.04 1019.95 1019.84 1019.71 1019.54 1019.34 1019.12 1018.89 1018.66 1018.44 1018.25 1018.08 1017.93 1017.78 1017.62 1017.41 1017.13 1016.76 1016.29 1015.74 1015.10 1014.42 1013.71 1013.02 1012.36 1011.77 1011.24 1010.78 1010.37 1009.99 1009.63 1009.27 1008.91
1019.98 1019.91 1019.82 1019.72 1019.62 1019.51 1019.39 1019.26 1019.11 1018.93 1018.72 1018.50 1018.27 1018.04 1017.83 1017.66 1017.51 1017.39 1017.29 1017.16 1016.99 1016.75 1016.42 1015.98 1015.43 1014.78 1014.07 1013.31 1012.55 1011.81 1011.13 1010.51 1009.96 1009.47 1009.04 1008.65 1008.28 1007.93
1019.51 1019.42 1019.32 1019.21 1019.10 1018.98 1018.85 1018.71 1018.55 1018.36 1018.14 1017.91 1017.68 1017.46 1017.25 1017.08 1016.95 1016.85 1016.76 1016.66 1016.52 1016.31 1016.00 1015.58 1015.05 1014.40 1013.68 1012.89 1012.09 1011.30 1010.55 1009.87 1009.26 1008.73 1008.26 1007.86 1007.50 1007.18
1019.01 1018.92 1018.81 1018.70 1018.58 1018.46 1018.33 1018.18 1018.01 1017.82 1017.60 1017.37 1017.13 1016.90 1016.70 1016.52 1016.39 1016.29 1016.20 1016.10 1015.97 1015.77 1015.48 1015.08 1014.56 1013.93 1013.21 1012.43 1011.62 1010.81 1010.04 1009.33 1008.70 1008.15 1007.68 1007.29 1006.95 1006.67
1018.52 1018.42 1018.31 1018.19 1018.07 1017.95 1017.81 1017.66 1017.49 1017.29 1017.07 1016.83 1016.59 1016.36 1016.14 1015.96 1015.80 1015.68 1015.58 1015.47 1015.32 1015.12 1014.83 1014.44 1013.94 1013.34 1012.64 1011.89 1011.10 1010.31 1009.56 1008.87 1008.25 1007.72 1007.28 1006.91 1006.62 1006.39
1018.06 1017.95 1017.83 1017.70 1017.57 1017.44 1017.30 1017.14 1016.96 1016.76 1016.54 1016.29 1016.04 1015.80 1015.57 1015.36 1015.19 1015.03 1014.89 1014.75 1014.58 1014.36 1014.07 1013.68 1013.20 1012.63 1011.98 1011.27 1010.53 1009.79 1009.09 1008.45 1007.88 1007.39 1006.99 1006.67 1006.42 1006.23
1017.62 1017.49 1017.35 1017.22 1017.07 1016.93 1016.77 1016.60 1016.42 1016.21 1015.98 1015.73 1015.47 1015.21 1014.96 1014.73 1014.52 1014.34 1014.16 1013.98 1013.77 1013.52 1013.22 1012.83 1012.37 1011.83 1011.23 1010.58 1009.91 1009.25 1008.62 1008.04 1007.54 1007.11 1006.76 1006.49 1006.28 1006.13
1017.20 1017.06 1016.91 1016.75 1016.59 1016.42 1016.25 1016.06 1015.86 1015.64 1015.40 1015.14 1014.87 1014.60 1014.33 1014.07 1013.83 1013.60 1013.39 1013.16 1012.92 1012.65 1012.32 1011.94 1011.50 1011.00 1010.44 1009.86 1009.27 1008.68 1008.13 1007.64 1007.20 1006.83 1006.53 1006.30 1006.12 1005.99
1016.81 1016.65 1016.48 1016.31 1016.13 1015.94 1015.74 1015.54 1015.31 1015.07 1014.81 1014.54 1014.25 1013.96 1013.68 1013.40 1013.13 1012.87 1012.62 1012.36 1012.09 1011.79 1011.45 1011.07 1010.65 1010.18 1009.68 1009.17 1008.64 1008.14 1007.67 1007.24 1006.86 1006.55 1006.28 1006.07 1005.90 1005.77
1016.44 1016.28 1016.10 1015.91 1015.71 1015.50 1015.28 1015.05 1014.79 1014.53 1014.25 1013.96 1013.65 1013.35 1013.04 1012.74 1012.45 1012.16 1011.88 1011.60 1011.31 1010.99 1010.66 1010.29 1009.88 1009.46 1009.01 1008.55 1008.09 1007.65 1007.25 1006.87 1006.55 1006.26 1006.02 1005.82 1005.64 1005.49
1016.11 1015.95 1015.77 1015.58 1015.36 1015.13 1014.88 1014.62 1014.34 1014.05 1013.74 1013.42 1013.10 1012.77 1012.45 1012.13 1011.82 1011.52 1011.22 1010.92 1010.62 1010.31 1009.97 1009.62 1009.25 1008.86 1008.46 1008.05 1007.65 1007.27 1006.91 1006.58 1006.29 1006.02 1005.78 1005.57 1005.37 1005.18
1015.83 1015.68 1015.51 1015.31 1015.08 1014.83 1014.56 1014.27 1013.96 1013.63 1013.30 1012.95 1012.60 1012.26 1011.91 1011.58 1011.26 1010.94 1010.64 1010.34 1010.04 1009.74 1009.43 1009.10 1008.76 1008.41 1008.06 1007.70 1007.35 1007.01 1006.69 1006.39 1006.11 1005.85 1005.60 1005.36 1005.13 1004.91
1015.61 1015.47 1015.30 1015.09 1014.85 1014.58 1014.29 1013.97 1013.63 1013.28 1012.91 1012.54 1012.16 1011.80 1011.44 1011.09 1010.76 1010.45 1010.15 1009.87 1009.58 1009.30 1009.02 1008.72 1008.42 1008.11 1007.80 1007.49 1007.18 1006.87 1006.58 1006.30 1006.02 1005.76 1005.50 1005.23 1004.97 1004.71
Thickness
5537 5534 5532 5530 5527 5525 5523 5523 5523 5525 5525 5520 5514 5510 5505 5502 5500 5498 5497 5495 5493 5491 5490 5488 5487 5485 5484 5483 5483 5482 5481 5481 5480 5480 5480 5479 5480 5480
5525 5524 5521 5518 5516 5513 5511 5510 5508 5508 5510 5508 5502 5498 5493 5489 5487 5485 5484 5482 5480 5478 5476 5474 5473 5471 5470 5469 5468 5467 5466 5465 5464 5463 5463 5463 5463 5463
5514 5512 5510 5507 5504 5502 5499 5497 5495 5493 5493 5493 5488 5484 5480 5477 5475 5472 5470 5469 5467 5465 5462 5460 5458 5457 5455 5454 5452 5450 5449 5448 5447 5446 5446 5446 5446 5447
5504 5501 5498 5495 5493 5491 5488 5485 5483 5480 5478 5478 5475 5471 5467 5464 5461 5459 5457 5454 5453 5450 5448 5445 5444 5441 5440 5438 5436 5434 5432 5430 5429 5428 5428 5428 5429 5429
5494 5490 5488 5485 5483 5480 5476 5473 5470 5467 5464 5462 5462 5457 5454 5450 5447 5446 5443 5440 5438 5435 5432 5430 5428 5425 5423 5421 5419 5416 5414 5412 5411 5410 5409 5409 5409 5410
5482 5479 5476 5474 5472 5469 5465 5461 5458 5454 5451 5448 5447 5444 5441 5437 5433 5432 5431 5427 5425 5421 5417 5415 5412 5409 5407 5405 5402 5399 5397 5394 5393 5392 5391 5391 5391 5391
5471 5467 5464 5462 5459 5455 5452 5449 5445 5442 5438 5435 5434 5431 5428 5424 5421 5417 5415 5413 5411 5405 5403 5401 5397 5395 5391 5389 5385 5382 5379 5378 5376 5375 5374 5374 5374 5374
5460 5457 5453 5449 5445 5442 5439 5435 5432 5429 5427 5423 5421 5419 5416 5411 5407 5402 5398 5397 5397 5393 5386 5386 5380 5379 5376 5373 5370 5366 5363 5362 5360 5359 5358 5358 5357 5358
5449 5446 5443 5439 5434 5431 5428 5423 5420 5416 5412 5410 5408 5406 5402 5398 5393 5389 5385 5382 5380 5375 5369 5371 5367 5365 5362 5359 5354 5351 5348 5347 5345 5344 5343 5343 5342 5342
5438 5435 5432 5429 5424 5420 5417 5414 5411 5407 5402 5398 5396 5393 5388 5383 5378 5374 5371 5367 5365 5360 5354 5354 5354 5351 5349 5345 5342 5338 5335 5333 5331 5330 5329 5328 5327 5328
5428 5424 5421 5418 5413 5408 5405 5403 5401 5397 5391 5387 5383 5379 5375 5370 5364 5359 5355 5351 5351 5350 5342 5338 5339 5337 5336 5333 5329 5325 5322 5320 5318 5316 5315 5315 5314 5314
5418 5413 5409 5405 5401 5396 5393 5392 5390 5387 5381 5377 5373 5369 5364 5359 5353 5347 5342 5338 5336 5336 5333 5325 5323 5320 5322 5323 5317 5313 5310 5309 5306 5304 5303 5302 5301 5301
5407 5403 5400 5395 5390 5386 5382 5380 5377 5373 5369 5366 5362 5358 5353 5348 5342 5336 5331 5326 5323 5322 5318 5311 5309 5306 5303 5307 5306 5302 5299 5297 5296 5294 5293 5292 5291 5290
5396 5393 5389 5384 5379 5375 5371 5368 5364 5359 5356 5353 5349 5346 5341 5336 5331 5325 5320 5316 5312 5309 5306 5300 5297 5294 5292 5293 5294 5294 5290 5286 5285 5284 5283 5283 5282 5282
5384 5381 5377 5372 5368 5365 5361 5356 5351 5347 5344 5340 5337 5333 5329 5324 5320 5315 5310 5306 5303 5299 5296 5291 5287 5285 5282 5281 5283 5282 5280 5279 5276 5275 5275 5274 5275 5275
5371 5368 5364 5360 5356 5352 5348 5344 5340 5336 5331 5328 5325 5321 5316 5312 5308 5304 5300 5297 5294 5293 5288 5283 5280 5276 5275 5274 5273 5273 5271 5270 5270 5268 5267 5268 5268 5268
5359 5355 5352 5348 5345 5342 5337 5333 5328 5324 5319 5316 5312 5308 5305 5302 5298 5294 5290 5287 5286 5285 5282 5277 5273 5270 5268 5266 5266 5266 5265 5264 5263 5261 5261 5262 5264 5264
5345 5344 5341 5338 5334 5330 5326 5322 5317 5313 5309 5304 5300 5297 5294 5292 5289 5285 5281 5279 5278 5277 5274 5271 5267 5264 5263 5262 5259 5259 5258 5257 5256 5255 5255 5257 5260 5261
5335 5333 5330 5326 5322 5317 5313 5309 5306 5302 5297 5294 5290 5287 5284 5281 5279 5277 5274 5272 5270 5269 5267 5264 5260 5257 5257 5259 5259 5253 5251 5251 5250 5250 5251 5252 5255 5257
5325 5322 5318 5314 5309 5305 5301 5298 5294 5291 5287 5284 5281 5278 5275 5273 5271 5269 5267 5265 5263 5262 5260 5258 5254 5251 5249 5250 5250 5249 5246 5244 5245 5246 5247 5249 5250 5253
5314 5310 5306 5302 5298 5294 5290 5287 5284 5281 5278 5275 5273 5270 5267 5265 5264 5262 5260 5258 5256 5255 5254 5253 5249 5245 5242 5241 5242 5246 5244 5241 5240 5240 5242 5243 5247 5250
5303 5299 5295 5291 5288 5284 5281 5278 5276 5273 5270 5267 5265 5263 5261 5259 5257 5256 5254 5252 5250 5249 5248 5246 5243 5240 5238 5237 5239 5241 5241 5240 5239 5238 5238 5239 5240 5246
5292 5288 5285 5282 5278 5275 5273 5270 5268 5266 5263 5261 5259 5257 5255 5253 5252 5250 5248 5246 5244 5243 5241 5240 5239 5236 5234 5234 5234 5235 5236 5237 5238 5239 5240 5239 5239 5240